Date String (YYYY-MM-DD hh:mm:ss) UTC,Instrument flags,absolute air pressure of the measurement (hPa),sample flow rate (lpm),inlet stack bypass flow (lpm),air temperature of the measurement (°C),ambient temperature measured by the external sensor (°C),aerosol sample conditioner tube jacket temperature (°C),OPC LED temperature (°C),internal box temperature (°C),relative humidity of the measurement (%),span deviation,mass concentration of particles derived from Lorenz-Mie calculation of OPC scattering (μg/m³),mass concentration of particles derived from Lorenz-Mie calculation of OPC scattering (μg/m³),mass concentration of particles derived from Lorenz-Mie calculation of OPC scattering (μg/m³)
DateTimeUTC,F1_M11,P_M11,Q1_M11,Q2_M11,T1_M11,T2_M11,T3_M11,T4_M11,T5_M11,U1_M11,ZSPAN_M11,X0_M11,X2_M11,X1_M11
2023-10-17 20:00:00,SystemResetWarning,0827.7,4.99,000.00,028.2,026.8,000.0,036.6,030.1,11.4,0000.0,0003.77,0001.03,0000.80
2023-10-17 20:01:00,SystemResetWarning,0827.6,5.00,000.00,028.3,027.0,000.0,036.6,030.1,11.4,0000.0,0003.75,0001.03,0000.80
2023-10-17 20:02:00,SystemResetWarning,0827.7,4.98,000.00,028.3,026.0,000.0,036.6,030.1,11.4,0000.0,0003.74,0001.03,0000.81
2023-10-17 20:03:00,SystemResetWarning,0827.6,5.01,000.00,028.2,024.6,000.0,036.5,029.9,11.4,0000.0,0003.69,0001.02,0000.81
2023-10-17 20:04:00,SystemResetWarning,0827.6,5.02,000.00,028.2,024.6,000.0,036.5,029.8,11.5,0000.0,0003.75,0001.05,0000.82
2023-10-17 20:05:00,SystemResetWarning,0827.6,5.00,000.00,028.1,024.9,000.0,036.5,029.7,11.5,0000.0,0003.22,0001.07,0000.83
2023-10-17 20:06:00,SystemResetWarning,0827.6,5.00,000.00,028.1,025.3,000.0,036.5,029.7,11.6,0000.0,0003.84,0001.10,0000.83
2023-10-17 20:07:00,SystemResetWarning,0827.6,4.99,000.00,028.1,025.8,000.0,036.5,029.8,11.6,0000.0,0004.36,0001.07,0000.82
2023-10-17 20:08:00,SystemResetWarning,0827.6,5.00,000.00,028.1,026.2,000.0,036.5,029.9,11.6,0000.0,0004.31,0001.05,0000.82
2023-10-17 20:09:00,SystemResetWarning,0827.6,5.01,000.00,028.2,026.5,000.0,036.5,030.0,11.4,0000.0,0004.85,0001.05,0000.81
2023-10-17 20:10:00,SystemResetWarning,0827.5,5.00,000.00,028.2,026.8,000.0,036.6,030.0,11.6,0000.0,0005.03,0001.01,0000.80
2023-10-17 20:11:00,SystemResetWarning,0827.4,5.00,000.00,028.2,027.1,000.0,036.6,030.1,11.6,0000.0,0004.02,0001.01,0000.80
2023-10-17 20:12:00,SystemResetWarning,0827.6,5.00,000.00,028.3,027.0,000.0,036.6,030.2,11.5,0000.0,0003.60,0001.03,0000.81
2023-10-17 20:13:00,SystemResetWarning,0827.5,4.98,000.00,028.3,025.6,000.0,036.6,030.0,11.5,0000.0,0003.66,0001.06,0000.81
2023-10-17 20:14:00,SystemResetWarning,0827.5,5.02,000.00,028.2,024.6,000.0,036.5,029.8,11.5,0000.0,0003.66,0001.07,0000.82
2023-10-17 20:15:00,SystemResetWarning,0827.5,5.00,000.00,028.1,024.8,000.0,036.5,029.7,11.6,0000.0,0003.67,0001.07,0000.82
2023-10-17 20:16:00,SystemResetWarning,0827.5,4.99,000.00,028.1,025.1,000.0,036.5,029.6,11.7,0000.0,0003.66,0001.07,0000.82
2023-10-17 20:17:00,SystemResetWarning,0827.5,5.01,000.00,028.1,025.5,000.0,036.5,029.7,11.8,0000.0,0003.53,0001.09,0000.82
2023-10-17 20:18:00,SystemResetWarning,0827.4,5.00,000.00,028.1,025.9,000.0,036.5,029.8,11.7,0000.0,0002.76,0001.11,0000.82
2023-10-17 20:19:00,SystemResetWarning,0827.6,5.00,000.00,028.1,026.3,000.0,036.5,029.9,11.7,0000.0,0003.69,0001.17,0000.84
2023-10-17 20:20:00,SystemResetWarning,0827.4,5.00,000.00,028.1,026.6,000.0,036.5,029.9,11.7,0000.0,0003.41,0001.21,0000.86
2023-10-17 20:21:00,SystemResetWarning,0827.5,5.00,000.00,028.2,026.9,000.0,036.6,030.0,11.5,0000.0,0003.17,0001.25,0000.87
2023-10-17 20:22:00,SystemResetWarning,0827.5,5.00,000.00,028.2,026.9,000.0,036.6,030.1,11.5,0000.0,0003.81,0001.24,0000.87
2023-10-17 20:23:00,SystemResetWarning,0827.6,4.98,000.00,028.2,025.6,000.0,036.5,030.0,11.5,0000.0,0003.91,0001.25,0000.88
2023-10-17 20:24:00,SystemResetWarning,0827.4,5.02,000.00,028.1,024.5,000.0,036.5,029.7,11.7,0000.0,0003.88,0001.24,0000.88
2023-10-17 20:25:00,SystemResetWarning,0827.4,5.01,000.00,028.1,024.6,000.0,036.4,029.7,11.8,0000.0,0004.02,0001.24,0000.89
2023-10-17 20:26:00,SystemResetWarning,0827.4,4.99,000.00,028.0,025.0,000.0,036.4,029.5,11.7,0000.0,0003.99,0001.22,0000.88
2023-10-17 20:27:00,SystemResetWarning,0827.4,5.00,000.00,028.0,025.4,000.0,036.4,029.6,11.6,0000.0,0003.97,0001.21,0000.88
2023-10-17 20:28:00,SystemResetWarning,0827.4,5.00,000.00,028.0,025.8,000.0,036.5,029.7,11.7,0000.0,0003.88,0001.18,0000.88
2023-10-17 20:29:00,SystemResetWarning,0827.4,4.99,000.00,028.0,026.2,000.0,036.5,029.8,11.6,0000.0,0003.80,0001.16,0000.88
2023-10-17 20:30:00,SystemResetWarning,0827.4,5.00,000.00,028.1,026.5,000.0,036.5,029.9,11.7,0000.0,0002.73,0001.13,0000.88
2023-10-17 20:31:00,SystemResetWarning,0827.4,5.00,000.00,028.1,026.8,000.0,036.5,030.0,11.7,0000.0,0002.73,0001.13,0000.87
2023-10-17 20:32:00,SystemResetWarning,0827.4,4.99,000.00,028.2,027.0,000.0,036.5,030.0,11.6,0000.0,0002.70,0001.11,0000.86
2023-10-17 20:33:00,SystemResetWarning,0827.3,4.98,000.00,028.2,026.8,000.0,036.5,030.1,11.5,0000.0,0001.87,0001.13,0000.87
2023-10-17 20:34:00,SystemResetWarning,0827.4,5.00,000.00,028.2,025.3,000.0,036.5,029.9,11.5,0000.0,0001.87,0001.15,0000.86
2023-10-17 20:35:00,SystemResetWarning,0827.3,5.01,000.00,028.1,024.5,000.0,036.4,029.7,11.4,0000.0,0001.92,0001.16,0000.85
2023-10-17 20:36:00,SystemResetWarning,0827.3,5.01,000.00,028.0,024.7,000.0,036.4,029.6,11.6,0000.0,0001.83,0001.15,0000.84
2023-10-17 20:37:00,SystemResetWarning,0827.2,5.00,000.00,028.0,025.1,000.0,036.4,029.6,11.8,0000.0,0003.19,0001.15,0000.84
2023-10-17 20:38:00,SystemResetWarning,0827.3,5.00,000.00,028.0,025.5,000.0,036.4,029.6,11.6,0000.0,0003.53,0001.16,0000.84
2023-10-17 20:39:00,SystemResetWarning,0827.3,4.99,000.00,028.0,025.9,000.0,036.4,029.7,11.6,0000.0,0003.69,0001.22,0000.84
2023-10-17 20:40:00,SystemResetWarning,0827.4,5.00,000.00,028.0,026.2,000.0,036.5,029.8,11.7,0000.0,0004.42,0001.26,0000.85
2023-10-17 20:41:00,SystemResetWarning,0827.4,5.01,000.00,028.1,026.6,000.0,036.5,029.9,11.5,0000.0,0004.57,0001.27,0000.85
2023-10-17 20:42:00,SystemResetWarning,0827.4,5.00,000.00,028.1,026.8,000.0,036.5,030.0,11.4,0000.0,0005.09,0001.26,0000.86
2023-10-17 20:43:00,SystemResetWarning,0827.4,5.00,000.00,028.2,027.1,000.0,036.5,030.1,11.5,0000.0,0005.63,0001.26,0000.88
2023-10-17 20:44:00,SystemResetWarning,0827.4,4.98,000.00,028.2,026.3,000.0,036.5,030.0,11.7,0000.0,0005.74,0001.30,0000.89
2023-10-17 20:45:00,SystemResetWarning,0827.4,5.00,000.00,028.2,024.7,000.0,036.5,029.8,11.8,0000.0,0006.28,0001.28,0000.90
2023-10-17 20:46:00,SystemResetWarning,0827.3,5.01,000.00,028.1,024.5,000.0,036.4,029.7,11.8,0000.0,0006.81,0001.26,0000.90
2023-10-17 20:47:00,SystemResetWarning,0827.4,5.00,000.00,028.0,024.9,000.0,036.4,029.6,12.1,0000.0,0006.88,0001.26,0000.91
2023-10-17 20:48:00,SystemResetWarning,0827.4,5.00,000.00,028.0,025.3,000.0,036.4,029.6,12.4,0000.0,0006.22,0001.29,0000.92
2023-10-17 20:49:00,SystemResetWarning,0827.3,4.99,000.00,028.0,025.7,000.0,036.4,029.7,12.3,0000.0,0005.20,0001.30,0000.94
2023-10-17 20:50:00,SystemResetWarning,0827.4,5.00,000.00,028.1,026.1,000.0,036.4,029.8,12.2,0000.0,0005.07,0001.26,0000.95
2023-10-17 20:51:00,SystemResetWarning,0827.4,5.00,000.00,028.1,026.5,000.0,036.5,029.9,12.3,0000.0,0004.53,0001.22,0000.96
2023-10-17 20:52:00,SystemResetWarning,0827.4,5.00,000.00,028.1,026.8,000.0,036.5,030.0,12.1,0000.0,0004.24,0001.19,0000.96
2023-10-17 20:53:00,SystemResetWarning,0827.4,4.99,000.00,028.2,027.0,000.0,036.5,030.0,11.8,0000.0,0004.03,0001.21,0000.96
2023-10-17 20:54:00,SystemResetWarning,0827.4,4.98,000.00,028.2,026.4,000.0,036.5,030.0,11.9,0000.0,0003.33,0001.23,0000.98
2023-10-17 20:55:00,SystemResetWarning,0827.4,5.00,000.00,028.2,024.8,000.0,036.4,029.8,12.0,0000.0,0003.79,0001.26,0000.99
2023-10-17 20:56:00,SystemResetWarning,0827.3,5.01,000.00,028.1,024.5,000.0,036.4,029.7,12.3,0000.0,0003.91,0001.27,0001.01
2023-10-17 20:57:00,SystemResetWarning,0827.3,5.02,000.00,028.0,024.8,000.0,036.4,029.6,12.2,0000.0,0003.15,0001.32,0001.04
2023-10-17 20:58:00,SystemResetWarning,0827.4,5.00,000.00,028.0,025.2,000.0,036.4,029.6,12.2,0000.0,0003.39,0001.36,0001.07
2023-10-17 20:59:00,SystemResetWarning,0827.4,4.99,000.00,028.0,025.7,000.0,036.4,029.7,12.2,0000.0,0004.47,0001.42,0001.10
